Theta_e
320 318 318 317 316 316 315 314 314 313 312 312 312 313 313 313 312 304 298 304 307 315 315 301 300 299 299 298 300 302 296 294 296 296 300 303 304 304 303 305 299 300 301 299 299
317 318 319 319 317 316 314 314 313 313 312 312 311 312 312 313 303 298 307 313 315 317 301 296 295 295 292 295 297 297 294 296 299 300 300 302 302 300 300 299 299 299 297 298 301
314 315 317 319 318 316 315 313 312 312 312 312 311 312 311 309 293 293 310 318 316 317 302 298 296 294 290 294 296 297 293 298 299 302 302 301 298 298 297 298 300 301 301 296 299
311 312 315 318 318 317 315 314 312 312 312 312 310 311 311 301 282 293 311 319 316 311 299 295 293 291 289 289 293 291 295 298 300 303 301 298 300 296 296 302 303 302 299 296 297
310 310 312 316 317 316 315 314 313 312 311 312 310 310 306 294 292 301 306 306 304 301 297 293 290 291 288 289 290 290 292 296 299 300 300 297 296 298 296 300 299 299 296 296 297
309 309 310 313 317 316 315 314 313 312 312 312 311 310 298 287 299 295 294 294 299 296 295 294 292 293 290 290 289 290 291 293 294 296 297 296 296 295 297 299 298 298 297 296 296
310 309 308 310 313 316 315 314 313 312 312 312 312 305 296 291 298 296 299 294 291 295 294 294 294 293 291 289 293 291 287 288 288 291 293 296 291 290 299 297 297 298 298 296 296
308 308 309 308 310 312 315 315 313 312 312 312 311 302 291 299 298 297 296 292 291 291 293 294 295 292 291 292 289 286 287 285 289 290 291 293 289 293 297 296 296 296 296 296 297
307 309 308 309 309 310 314 315 313 313 313 310 300 298 289 300 293 293 295 291 289 290 291 295 294 289 289 285 282 282 281 280 285 289 289 289 291 291 290 292 294 292 293 293 293
307 308 310 309 308 309 311 310 310 307 303 304 300 290 291 289 289 288 287 289 287 288 288 289 288 285 283 283 277 279 278 281 283 285 287 287 288 288 288 287 288 288 289 289 290
307 308 309 309 308 310 304 299 293 289 290 287 288 287 288 288 287 286 287 288 288 287 280 283 283 279 282 284 285 282 282 281 281 284 285 285 288 289 289 287 286 288 289 290 291
306 308 311 310 309 307 300 294 290 291 283 291 292 291 293 291 287 285 288 284 284 279 283 281 278 283 284 284 284 282 281 279 280 283 284 282 282 283 284 287 288 289 290 290 290
305 309 310 311 308 301 296 295 296 293 281 283 286 285 286 289 285 287 286 286 282 280 280 278 279 283 283 281 281 281 280 281 280 280 281 279 280 280 282 283 286 287 289 288 287
302 304 307 307 302 295 294 297 295 289 271 278 280 283 283 286 281 286 287 285 282 279 281 280 282 280 278 279 282 278 283 282 280 279 276 279 274 281 279 281 282 285 286 286 285
301 301 303 304 296 293 292 295 294 289 264 279 279 285 283 280 280 281 289 286 281 281 282 277 278 278 279 279 282 280 282 281 281 279 278 276 274 280 277 278 282 285 283 283 283
300 300 301 295 296 294 296 296 293 274 264 273 278 278 278 279 279 280 282 287 285 282 282 281 282 280 280 280 282 283 280 279 278 277 271 276 275 277 278 280 283 282 283 283 283
299 299 295 294 289 295 297 291 276 270 276 272 274 278 277 276 277 278 278 277 275 273 274 279 279 280 281 279 282 281 277 272 270 269 269 272 273 279 280 280 281 282 281 282 284
299 297 294 293 294 294 293 281 266 269 268 279 278 278 275 276 276 276 275 273 278 278 274 274 272 278 279 279 279 278 278 273 266 268 271 273 271 277 280 280 281 280 280 281 281
297 286 286 291 294 294 285 269 266 273 278 277 279 274 268 276 274 274 272 271 276 278 274 273 274 276 277 278 280 278 275 280 274 271 271 273 275 280 279 279 278 278 279 280 280
284 281 286 292 294 290 279 271 271 280 280 279 275 276 268 268 274 273 275 276 276 279 280 278 272 275 276 278 278 279 280 276 277 269 268 273 272 276 278 277 277 277 278 279 279
280 273 279 292 292 276 266 265 271 280 281 278 276 276 274 271 272 270 276 278 280 278 280 278 276 272 275 273 275 275 276 277 277 275 271 268 271 277 279 279 278 278 278 279 279
276 267 280 287 271 272 272 269 281 279 280 280 281 278 276 276 274 273 273 277 282 281 278 280 276 272 272 274 274 273 277 278 274 271 273 272 273 276 276 279 278 277 279 279 279
277 270 280 286 269 265 273 272 278 277 278 276 276 278 277 277 272 277 278 279 282 279 279 280 275 269 271 272 273 271 274 278 279 276 272 271 274 277 276 276 278 278 279 280 280
276 272 267 277 274 271 263 267 268 278 278 278 276 276 276 272 276 272 277 281 281 282 285 284 277 270 268 272 272 271 273 275 275 272 272 273 274 276 277 277 279 280 280 280 278
279 272 270 262 265 266 268 270 271 269 273 277 272 273 269 264 268 266 272 274 278 281 278 276 271 272 271 274 274 274 274 273 272 274 271 274 276 279 278 279 280 281 280 280 278
281 272 268 263 265 267 271 267 270 271 269 267 269 273 269 264 267 265 268 267 270 274 274 275 269 271 265 274 275 273 273 275 276 275 274 275 275 283 280 281 281 281 281 280 277
284 280 278 276 269 269 265 269 271 272 272 275 272 271 268 271 275 274 274 273 273 267 269 272 271 270 263 271 273 264 270 273 275 274 274 273 276 279 280 281 281 281 281 279 277
Wind_Speed
13 11 12 13 13 14 14 14 15 16 17 17 17 18 19 20 19 6 15 14 12 18 4 4 3 5 4 4 4 3 5 10 13 10 7 2 3 2 1 2 3 6 2 1 5
19 20 17 13 13 12 13 14 16 15 16 17 18 18 19 19 13 15 14 17 18 7 5 9 7 7 4 5 5 5 9 12 6 9 6 4 7 5 3 4 4 3 2 3 9
19 21 19 17 11 12 12 13 15 15 15 16 16 17 18 12 6 9 9 9 18 15 4 5 4 7 5 4 6 6 17 7 5 7 8 5 5 6 6 7 7 10 7 8 9
19 20 21 19 12 13 10 13 14 14 14 14 15 16 18 4 9 2 14 13 2 7 4 3 5 7 7 11 6 7 7 7 7 7 6 5 4 6 8 10 4 9 5 9 13
21 20 22 23 14 13 10 12 14 15 15 15 14 14 6 6 14 6 12 8 3 6 9 6 6 6 8 7 5 6 4 7 10 7 7 4 9 10 8 12 4 4 7 10 11
21 21 21 22 15 14 11 14 16 16 16 15 14 13 3 17 5 1 6 6 2 2 5 6 7 7 5 7 9 3 9 11 7 7 6 7 8 6 10 8 9 9 11 10 14
23 20 21 19 19 16 13 14 16 16 16 16 13 5 10 27 4 4 6 3 2 3 5 4 3 4 3 2 6 4 7 4 6 5 6 4 16 14 9 6 11 13 13 10 14
23 22 21 18 19 18 20 15 16 18 18 17 15 3 12 6 3 5 2 6 8 7 4 5 7 4 3 5 3 3 3 13 8 9 5 11 27 4 14 12 16 12 9 9 12
24 24 21 17 17 19 20 17 15 20 19 13 4 5 13 10 5 8 8 7 4 4 5 0 5 5 2 3 5 5 9 5 5 11 5 7 27 2 3 11 15 11 12 13 12
25 24 21 18 16 15 17 10 17 11 3 2 1 2 7 6 4 3 2 4 2 3 2 4 3 3 1 9 18 8 6 5 12 5 4 7 24 7 2 6 10 9 9 10 11
25 25 24 16 13 15 4 5 5 3 1 7 7 9 7 6 2 2 1 5 3 2 7 4 5 12 26 14 14 1 10 9 2 6 6 14 20 14 9 7 9 13 12 13 15
26 28 22 12 8 4 2 3 3 2 12 16 26 21 17 4 8 5 1 5 5 6 5 3 15 24 7 9 12 6 12 16 3 4 6 3 17 10 8 14 12 16 18 18 14
25 26 23 11 5 4 2 4 1 2 6 8 5 5 5 6 9 13 7 2 5 6 7 9 13 9 8 6 12 17 18 21 12 4 3 3 13 7 8 10 11 13 17 10 10
25 24 22 17 5 4 3 7 5 1 4 8 3 3 2 4 5 4 5 6 4 9 7 12 10 5 2 9 14 17 10 18 7 4 10 3 12 16 5 11 8 17 12 13 8
24 22 23 9 3 3 7 9 4 1 6 3 2 2 2 2 5 5 4 3 5 3 5 8 2 7 17 23 11 10 4 9 13 14 6 6 3 15 3 7 12 15 8 7 5
25 22 18 6 2 2 8 4 3 4 10 7 3 5 5 2 3 2 3 6 1 4 5 14 2 2 4 2 13 7 4 3 3 4 6 15 13 27 9 8 7 2 5 3 1
24 20 7 3 3 8 4 2 1 5 5 8 4 5 4 5 4 4 4 6 4 1 10 12 16 4 4 2 1 1 5 2 2 3 10 6 10 24 4 4 6 6 6 4 4
21 16 1 1 4 5 0 1 3 4 7 3 4 6 4 4 4 2 3 4 6 1 4 6 6 12 7 15 9 9 11 6 7 7 8 2 11 11 6 3 3 7 7 5 6
17 3 2 3 4 2 1 1 9 6 2 6 9 3 6 3 2 4 4 5 5 11 10 4 6 2 1 2 2 5 10 7 4 2 1 5 8 10 8 4 4 7 6 6 5
2 4 2 5 5 2 1 7 5 3 1 1 6 3 4 4 3 2 2 5 4 3 1 3 7 2 2 1 2 4 2 4 4 7 6 5 6 12 1 6 6 6 7 5 3
4 5 5 4 2 2 4 9 5 4 2 5 4 5 5 5 6 4 5 6 1 4 1 3 5 2 2 4 10 4 3 2 0 3 5 2 8 6 6 5 13 10 8 6 5
3 3 4 2 3 1 4 4 4 4 2 6 6 10 11 7 5 5 7 6 4 1 4 6 4 4 9 2 2 1 7 10 5 5 2 1 13 0 7 6 9 8 6 5 5
3 4 4 2 3 3 4 5 4 4 4 4 5 3 2 5 5 5 3 3 8 1 3 3 4 3 4 3 2 3 4 8 7 1 6 4 5 7 7 7 10 8 5 5 4
2 3 5 1 3 5 4 6 3 2 5 4 4 4 4 4 4 6 4 4 6 5 8 6 3 5 4 2 1 3 1 2 7 6 4 16 10 8 8 7 4 5 5 6 5
4 7 6 4 5 6 5 5 4 3 4 3 5 2 1 4 5 4 6 6 4 6 7 8 4 2 4 5 6 7 6 7 10 10 10 7 16 11 3 2 1 4 5 5 4
6 4 2 3 2 8 10 7 10 9 6 6 8 4 4 3 5 5 3 2 6 5 7 3 6 3 5 7 9 10 10 13 14 10 13 16 23 16 3 4 4 3 3 3 3
2 2 5 10 8 8 10 14 14 8 7 9 8 6 6 11 10 10 7 7 10 4 1 3 4 6 5 6 2 6 10 13 3 6 4 9 3 12 4 7 3 5 3 3 5
Wind_Direction
303 297 298 307 313 316 323 328 331 332 331 328 328 328 324 319 315 313 266 226 201 241 182 122 126 161 136 206 189 139 231 229 229 191 236 192 194 185 188 187 207 197 232 35 118
341 334 312 289 297 303 311 322 329 328 328 327 329 327 323 322 311 273 248 251 248 254 192 175 182 153 185 198 194 183 225 228 200 194 217 210 188 189 173 203 233 250 210 96 146
337 330 322 297 283 292 304 315 323 324 323 323 328 326 322 343 314 247 300 305 245 242 232 192 126 160 198 176 191 205 237 214 215 205 211 212 207 184 190 242 204 204 209 167 175
335 333 335 314 281 280 296 307 310 315 313 316 323 324 320 57 280 194 349 344 164 178 190 178 161 176 195 210 209 235 232 220 215 203 176 221 154 204 188 229 200 218 165 167 186
334 339 335 334 282 281 290 293 297 307 313 314 317 317 330 270 251 321 341 343 59 133 196 195 176 171 199 197 211 237 209 218 236 216 224 146 220 221 217 244 214 158 181 192 203
342 338 333 335 301 278 279 288 294 301 306 308 312 313 255 264 238 191 41 348 279 201 189 201 213 211 222 213 198 232 212 233 225 222 219 207 253 159 229 230 217 215 220 208 212
343 338 328 329 330 296 276 275 291 297 301 303 301 293 244 246 251 242 341 252 257 225 214 209 258 205 174 275 245 249 255 273 220 206 232 134 270 226 227 197 223 224 233 226 228
341 335 325 319 319 316 294 276 285 293 295 297 295 268 259 262 288 284 204 279 229 229 231 245 203 224 227 301 335 237 192 246 213 158 224 162 258 300 209 192 223 228 239 240 245
342 334 326 321 314 311 319 271 283 286 291 295 273 197 268 319 283 264 181 229 178 201 226 204 141 189 156 210 322 236 249 220 279 201 145 191 258 184 137 197 234 234 243 249 258
347 343 336 325 312 310 317 312 279 307 359 144 239 312 274 265 270 286 175 220 236 145 188 169 124 182 199 181 221 197 224 233 236 195 185 190 257 247 209 203 244 259 255 255 254
348 341 333 326 326 327 348 334 4 327 59 213 207 223 278 280 313 273 207 140 127 164 183 214 183 209 219 221 236 190 223 240 227 202 162 219 243 256 253 250 253 260 253 256 251
351 340 333 334 339 34 18 34 64 32 296 243 254 265 273 15 299 300 132 177 181 207 148 135 231 227 147 195 236 247 245 251 282 173 185 231 259 260 240 254 225 235 249 247 248
356 7 11 351 104 36 39 31 299 323 271 283 223 242 249 189 250 242 181 183 201 185 216 212 218 196 213 177 209 229 232 250 246 171 239 329 274 245 242 256 252 247 244 255 234
355 356 353 337 315 322 62 328 343 52 345 284 270 262 255 181 246 290 214 179 218 216 182 236 267 175 160 237 207 236 224 252 230 192 246 188 278 271 221 242 231 250 240 252 243
353 346 345 35 303 25 319 304 295 37 321 271 283 288 282 179 294 24 345 22 241 203 132 238 235 215 226 232 170 240 197 220 224 223 237 224 256 269 147 257 254 255 236 226 231
350 345 346 15 43 351 302 313 27 53 253 319 313 350 359 235 263 237 69 43 1 226 213 248 275 276 264 347 194 134 119 94 90 139 220 226 199 270 214 201 246 185 154 183 223
350 345 5 343 345 313 321 348 347 200 337 306 330 360 318 271 284 205 188 175 217 221 238 251 241 205 186 208 64 154 147 192 212 181 235 177 176 238 219 215 209 202 150 136 101
344 337 20 122 307 301 339 96 224 236 245 346 340 285 261 331 241 289 267 264 231 131 359 243 294 206 190 206 185 176 223 171 213 212 222 157 226 241 232 259 221 136 150 133 103
342 345 356 344 327 299 180 150 216 223 264 328 312 352 303 304 264 342 233 242 251 189 197 279 265 43 83 339 205 173 215 213 98 55 239 202 275 290 201 213 156 157 158 155 115
14 355 304 324 318 249 198 233 235 225 301 193 282 238 256 268 350 1 277 237 261 222 254 204 285 262 334 145 19 132 311 163 166 194 215 239 262 239 284 187 165 175 171 195 119
50 8 258 307 303 36 199 227 269 269 198 221 255 276 254 281 218 219 235 282 269 331 191 86 210 271 341 208 190 115 223 347 338 199 190 263 255 230 273 205 185 169 168 163 105
102 344 263 354 45 264 246 212 280 275 240 284 281 262 260 251 234 231 237 240 4 47 213 203 222 245 235 195 149 26 204 189 222 207 237 296 257 83 276 232 146 158 147 102 83
193 231 306 139 212 244 284 281 294 298 236 245 259 269 335 303 328 267 245 65 11 283 279 170 212 289 305 358 1 177 191 211 219 106 201 183 264 9 28 83 109 128 118 97 79
143 263 313 240 186 171 201 258 254 333 282 292 295 322 316 298 256 277 293 358 333 355 342 295 216 206 216 226 104 136 25 299 184 224 194 233 290 1 27 108 90 84 103 95 71
186 224 182 211 258 193 166 206 204 260 227 216 296 138 303 277 329 312 5 323 335 32 19 13 298 343 293 240 237 251 228 204 222 248 245 287 261 272 171 229 289 89 126 118 93
241 171 230 200 164 150 199 223 207 231 163 257 215 177 173 192 193 281 72 338 260 317 353 100 308 311 275 265 215 243 232 233 228 223 249 255 266 281 128 303 256 235 139 142 130
208 171 201 192 174 181 198 204 216 179 241 210 184 169 209 223 228 220 223 225 245 238 244 238 203 346 273 335 302 312 236 223 184 56 314 243 310 336 276 253 344 321 239 109 90